DateTimeUTC,F1_A11,F1_S11,BsB_S11,BsG_S11,BsR_S11,BbsB_S11,BbsG_S11,BbsR_S11,BaB_A11,BaG_A11,BaR_A11,Tu_S11,T_S11,Uu_S11,U_S11,P_S11,T1_A11
2021-09-11T23:00:00Z,00000200,21000000,,,,,,,-000.28,-000.12,0000.05,19.2,26.3,,00.0,0667.6,31.1
2021-09-11T23:01:00Z,00000200,21000000,,,,,,,-000.23,-000.46,-000.03,19.2,26.3,,00.0,0667.6,31.1
2021-09-11T23:02:00Z,00000200,21000000,,,,,,,-000.07,0000.12,-000.11,19.2,26.3,,00.0,0667.6,31.1
2021-09-11T23:03:00Z,00000200,61000000,,,,,,,-000.51,-000.23,-000.38,19.3,26.4,,00.0,0667.6,31.1
2021-09-11T23:04:00Z,00000200,41000000,0000.93,0000.33,0000.09,0000.11,-000.11,0000.03,0000.50,0000.11,0000.24,19.7,26.3,,00.0,0668.5,31.1
2021-09-11T23:05:00Z,00000200,01000000,0000.01,0000.14,0000.52,0000.25,0000.19,0000.29,-000.13,-000.21,-000.33,19.8,26.3,,00.0,0668.6,31.1
2021-09-11T23:06:00Z,00000200,01000000,0000.21,0000.30,0000.15,0000.01,0000.03,0000.36,-000.25,-000.39,-000.14,19.7,26.2,,00.0,0668.6,31.1
2021-09-11T23:07:00Z,00000200,01000000,0000.72,0000.20,0000.23,-000.26,0000.02,0000.44,-000.39,-000.18,-000.11,19.6,26.2,,00.0,0668.6,31.1
2021-09-11T23:08:00Z,00000200,01000000,0000.81,0000.39,-000.06,-000.02,-000.02,-000.02,0000.17,-000.16,-000.34,19.5,26.1,,00.0,0668.6,31.1
2021-09-11T23:09:00Z,00000200,01000000,0000.12,0000.34,-000.01,0000.27,-000.32,0000.02,-000.38,-000.14,0000.13,19.4,26.1,,00.0,0668.6,31.1
2021-09-11T23:10:00Z,00000200,01000000,-000.36,0000.47,0000.12,-000.05,-000.09,-000.18,0000.12,-000.18,-000.22,19.3,26.0,,00.0,0668.5,31.0
2021-09-11T23:11:00Z,00000200,01000000,0000.09,0000.37,0000.04,0000.23,-000.07,-000.18,0000.23,0000.29,0000.54,19.2,26.0,,00.0,0668.6,31.0
2021-09-11T23:12:00Z,00000200,01000000,0001.67,0000.45,0000.31,-000.37,0000.19,0000.42,0000.41,0000.62,0000.01,19.2,25.9,,00.0,0668.5,31.0
2021-09-11T23:13:00Z,00000200,01000000,0000.76,0000.41,0000.37,-000.25,0000.49,0000.21,0000.23,0000.41,0000.74,19.3,26.0,,00.0,0668.5,31.1
2021-09-11T23:14:00Z,00000200,01000000,0000.57,0000.26,0000.51,0000.11,0000.10,0000.36,0000.19,0000.25,-000.18,19.3,26.0,,00.0,0668.6,31.1
2021-09-11T23:15:00Z,00000200,01000000,0000.25,0000.38,0000.31,0000.80,-000.11,0000.44,0000.32,-000.06,0000.09,19.4,26.0,,00.0,0668.6,31.1
2021-09-11T23:16:00Z,00000200,01000000,0000.55,0000.38,0000.08,-000.01,0000.07,0000.14,-000.26,0000.31,0000.20,19.5,26.0,,00.0,0668.6,31.1
2021-09-11T23:17:00Z,00000200,01000000,0001.22,0000.49,0000.21,0000.33,0000.21,0000.25,0000.22,0000.28,0000.03,19.6,26.1,,00.0,0668.5,31.1
2021-09-11T23:18:00Z,00000200,01000000,-000.03,0000.29,-000.15,0000.11,0000.02,0000.05,0000.26,0000.15,0000.15,19.7,26.1,,00.0,0668.5,31.2
2021-09-11T23:19:00Z,00000200,01000000,0000.15,0000.52,0000.20,0000.17,0000.52,-000.09,0000.33,-000.11,0000.01,19.7,26.2,,00.0,0668.6,31.2
2021-09-11T23:20:00Z,00000200,01000000,-000.07,0000.47,0000.12,0000.39,-000.26,0000.26,-000.11,0000.27,0000.16,19.8,26.2,,00.0,0668.5,31.1
2021-09-11T23:21:00Z,00000200,01000000,0000.49,0000.65,0000.19,0000.24,0000.21,0000.10,0000.21,-000.08,0000.03,19.8,26.2,,00.0,0668.6,31.1
2021-09-11T23:22:00Z,00000200,01000000,0000.24,0000.23,0000.36,-000.06,-000.01,0000.23,-000.26,-000.52,-000.06,19.7,26.1,,00.0,0668.6,31.1
2021-09-11T23:23:00Z,00000200,01000000,0000.81,0000.24,0000.02,0000.74,-000.05,0000.22,-000.01,0000.36,-000.19,19.6,26.1,,00.0,0668.5,31.1
2021-09-11T23:24:00Z,00000200,01000000,0000.84,0000.26,0000.45,0000.25,0000.02,0000.38,0000.13,-000.42,0000.03,19.5,26.1,,00.0,0668.5,31.1
2021-09-11T23:25:00Z,00000200,01000000,0000.43,0000.50,0000.21,0000.61,0000.28,0000.25,-000.21,-000.02,-000.13,19.4,26.0,,00.0,0668.5,31.1
2021-09-11T23:26:00Z,00000200,01000000,0000.10,0000.30,0000.07,0000.67,0000.18,-000.13,-000.07,0000.25,0000.08,19.3,26.0,,00.0,0668.5,31.0
2021-09-11T23:27:00Z,00000200,01000000,0000.51,0000.22,0000.11,0000.25,-000.09,0000.22,0000.62,0000.35,0000.51,19.3,25.9,,00.0,0668.5,31.1
2021-09-11T23:28:00Z,00000200,01000000,0000.28,0000.35,0000.41,0000.66,0000.07,0000.06,0000.43,0000.64,0000.03,19.3,25.9,,00.0,0668.5,31.1
2021-09-11T23:29:00Z,00000200,01000000,0001.41,0000.70,0000.04,0000.46,0000.07,0000.07,0000.11,0000.08,0000.38,19.4,26.0,,00.0,0668.5,31.1
2021-09-11T23:30:00Z,00000200,01000000,0000.20,0000.22,0000.49,-000.08,-000.10,0000.55,0000.30,0000.08,0000.04,19.5,26.0,,00.0,0668.4,31.1
2021-09-11T23:31:00Z,00000200,01000000,-000.05,0000.39,0000.32,0000.94,0000.35,0000.26,0000.17,0000.31,0000.47,19.6,26.1,,00.0,0668.4,31.1
2021-09-11T23:32:00Z,00000200,01000000,0000.36,0000.42,-000.02,-000.75,0000.28,-000.04,0000.39,0000.24,0000.03,19.6,26.1,,00.0,0668.5,31.1
2021-09-11T23:33:00Z,00000200,01000000,0000.51,0000.41,0000.42,0000.61,-000.01,0000.05,-000.23,-000.03,-000.06,19.7,26.2,,00.0,0668.5,31.1
2021-09-11T23:34:00Z,00000200,01000000,0001.04,0000.22,0000.34,0000.06,0000.04,0000.31,0000.23,0000.23,0000.35,19.7,26.2,,00.0,0668.5,31.1
2021-09-11T23:35:00Z,00000200,01000000,0000.82,0000.42,0000.50,0000.02,0000.03,0000.17,-000.18,-000.32,-000.28,19.7,26.1,,00.0,0668.5,31.1
2021-09-11T23:36:00Z,00000200,01000000,0001.16,0000.55,0000.32,-000.28,0000.20,0000.31,0000.25,0000.19,-000.19,19.6,26.1,,00.0,0668.5,31.1
2021-09-11T23:37:00Z,00000200,01000000,0000.54,0000.56,0000.31,0000.35,0000.11,0000.22,-000.08,-000.10,-000.21,19.5,26.1,,00.0,0668.5,31.1
2021-09-11T23:38:00Z,00000200,01000000,0000.50,0000.74,0000.35,0000.53,-000.11,0000.14,-000.18,-000.13,-000.15,19.4,26.0,,00.0,0668.4,31.1
2021-09-11T23:39:00Z,00000200,01000000,0000.32,0000.43,0000.36,0000.37,-000.08,0000.05,-000.02,-000.20,0000.17,19.3,26.0,,00.0,0668.4,31.0
2021-09-11T23:40:00Z,00000200,01000000,0001.22,0000.58,0000.31,0000.12,-000.00,0000.18,0000.18,0000.37,-000.09,19.2,25.9,,00.0,0668.4,31.0
2021-09-11T23:41:00Z,00000200,01000000,0000.44,0000.55,0000.20,0000.15,-000.03,-000.25,0000.09,-000.33,0000.43,19.1,25.8,,00.0,0668.4,31.0
2021-09-11T23:42:00Z,00000200,01000000,0000.61,0000.39,0000.32,-000.10,-000.09,0000.43,0000.35,0000.82,0000.21,19.1,25.8,,00.0,0668.5,31.0
2021-09-11T23:43:00Z,00000200,01000000,0000.60,0000.39,0000.27,-000.28,0000.04,0000.23,0000.32,0000.23,0000.10,19.2,25.8,,00.0,0668.5,31.0
2021-09-11T23:44:00Z,00000200,01000000,-000.43,0000.65,0000.05,0000.55,0000.16,0000.14,0000.24,0000.05,0000.19,19.2,25.8,,00.0,0668.5,31.1
2021-09-11T23:45:00Z,00000200,01000000,0000.00,-000.00,0000.26,-000.04,-000.17,0000.16,0000.01,0000.61,-000.09,19.3,25.9,,00.0,0668.5,31.1
2021-09-11T23:46:00Z,00000200,01000000,0000.12,0000.58,0000.45,-000.34,0000.19,0000.40,0000.16,-000.29,0000.70,19.4,25.9,,00.0,0668.5,31.1
2021-09-11T23:47:00Z,00000200,01000000,0000.50,0000.20,0000.28,0000.58,0000.13,0000.42,0000.02,0000.12,0000.19,19.4,26.0,,00.0,0668.5,31.1
2021-09-11T23:48:00Z,00000200,01000000,0000.29,0000.45,0000.34,0000.56,0000.08,-000.05,0000.40,0000.15,0000.04,19.5,26.0,,00.0,0668.5,31.1
2021-09-11T23:49:00Z,00000200,01000000,0000.81,0000.40,0000.33,0000.91,-000.06,0000.30,0000.01,0000.17,0000.19,19.6,26.0,,00.0,0668.5,31.1
2021-09-11T23:50:00Z,00000200,01000000,0000.88,0000.37,0000.34,0000.27,0000.19,-000.02,0000.12,-000.14,-000.10,19.7,26.1,,00.0,0668.5,31.1
2021-09-11T23:51:00Z,00000200,01000000,0000.78,0000.32,-000.02,0000.10,-000.02,0000.38,0000.00,0000.70,0000.28,19.7,26.1,,00.0,0668.5,31.2
2021-09-11T23:52:00Z,00000200,01000000,0000.33,0000.50,0000.29,0000.45,0000.12,0000.06,0000.25,-000.10,-000.14,19.8,26.2,,00.0,0668.5,31.2
2021-09-11T23:53:00Z,00000200,01000000,0000.21,0000.74,0000.14,0000.08,0000.13,0000.09,0000.12,0000.03,0000.01,19.8,26.2,,00.0,0668.5,31.1
2021-09-11T23:54:00Z,00000200,01000000,0000.41,0000.71,0000.32,0000.67,-000.09,0000.10,0000.02,0000.16,0000.00,19.8,26.2,,00.0,0668.5,31.1
2021-09-11T23:55:00Z,00000200,01000000,0000.70,0000.55,0000.22,0001.09,0000.10,0000.03,-000.31,-000.18,0000.21,19.7,26.2,,00.0,0668.5,31.1
2021-09-11T23:56:00Z,00000200,01000000,0001.45,0000.70,0000.20,0000.90,0000.35,0000.23,0000.19,0000.16,-000.40,19.6,26.1,,00.0,0668.5,31.1
2021-09-11T23:57:00Z,00000200,41000000,,,,,,,0001.21,0000.85,0000.58,19.6,26.1,,00.0,0668.5,31.1
2021-09-11T23:58:00Z,00000200,61000000,,,,,,,-000.57,-000.73,0000.00,19.3,26.2,,00.0,0667.6,31.1
2021-09-11T23:59:00Z,00000200,21000000,,,,,,,-000.25,0000.18,-000.18,19.3,26.3,,00.0,0667.6,31.1
